| time (UTC) | temp F | wind direction | speed knots | gust knots | rain 1hr in | rain 24hr in | rain mn in | humidity % | barometer mb |
| 20260506222352 | 54 | 252 | 2.6 | 7.0 | 0.00 | 0.00 | 0.00 | 46 | 1011.0 |
| 20260506221851 | 54 | 270 | 2.6 | 6.1 | 0.00 | 0.00 | 0.00 | 46 | 1011.1 |
| 20260506221352 | 54 | 262 | 2.6 | 7.0 | 0.00 | 0.00 | 0.00 | 46 | 1011.0 |
| 20260506220852 | 54 | 279 | 3.5 | 7.0 | 0.00 | 0.00 | 0.00 | 46 | 1011.0 |
| 20260506220354 | 54 | 277 | 3.5 | 7.0 | 0.00 | 0.00 | 0.00 | 46 | 1011.0 |
| 20260506215854 | 54 | 254 | 2.6 | 5.2 | 0.00 | 0.00 | 0.00 | 46 | 1011.1 |
| 20260506215609 | 54 | 311 | 2.6 | 6.1 | 0.00 | 0.00 | 0.00 | 46 | 1011.0 |
| 20260506214836 | 54 | 289 | 2.6 | 8.7 | 0.00 | 0.00 | 0.00 | 45 | 1011.0 |
| 20260506214336 | 55 | 286 | 3.5 | 8.7 | 0.00 | 0.00 | 0.00 | 45 | 1011.0 |
| 20260506213835 | 55 | 285 | 3.5 | 7.8 | 0.00 | 0.00 | 0.00 | 45 | 1010.9 |
| 20260506213336 | 55 | 229 | 1.7 | 7.8 | 0.00 | 0.00 | 0.00 | 44 | 1010.9 |
| 20260506212836 | 55 | 200 | 1.7 | 5.2 | 0.00 | 0.00 | 0.00 | 48 | 1010.8 |
| 20260506212336 | 55 | 65 | 2.6 | 7.0 | 0.00 | 0.00 | 0.00 | 46 | 1010.8 |
| 20260506211835 | 55 | 304 | 2.6 | 7.0 | 0.00 | 0.00 | 0.00 | 45 | 1010.9 |
| 20260506211339 | 56 | 355 | 2.6 | 7.0 | 0.00 | 0.00 | 0.00 | 45 | 1010.8 |
| 20260506210839 | 56 | 323 | 3.5 | 11.3 | 0.00 | 0.00 | 0.00 | 45 | 1010.8 |
| 20260506210333 | 56 | 189 | 3.5 | 11.3 | 0.00 | 0.00 | 0.00 | 44 | 1010.8 |
| 20260506210042 | 55 | 192 | 3.5 | 8.7 | 0.00 | 0.00 | 0.00 | 45 | 1010.8 |
| 20260506205539 | 55 | 66 | 3.5 | 7.8 | 0.00 | 0.00 | 0.00 | 42 | 1010.8 |
| 20260506204820 | 55 | 319 | 3.5 | 8.7 | 0.00 | 0.00 | 0.00 | 42 | 1010.8 |
| 20260506204320 | 55 | 282 | 2.6 | 8.7 | 0.00 | 0.00 | 0.00 | 45 | 1010.9 |
| 20260506204040 | 56 | 289 | 3.5 | 8.7 | 0.00 | 0.00 | 0.00 | 43 | 1010.9 |
| 20260506203320 | 56 | 279 | 3.5 | 8.7 | 0.00 | 0.00 | 0.00 | 45 | 1011.0 |
| 20260506202820 | 55 | 268 | 3.5 | 7.0 | 0.00 | 0.00 | 0.00 | 44 | 1010.9 |
| 20260506202545 | 55 | 318 | 3.5 | 7.0 | 0.00 | 0.00 | 0.00 | 45 | 1010.9 |
| 20260506201822 | 55 | 271 | 4.3 | 9.6 | 0.00 | 0.00 | 0.00 | 45 | 1010.9 |
| 20260506201317 | 55 | 285 | 5.2 | 9.6 | 0.00 | 0.00 | 0.00 | 44 | 1010.9 |
| 20260506200804 | 56 | 321 | 3.5 | 9.6 | 0.00 | 0.00 | 0.00 | 44 | 1011.1 |
| 20260506200304 | 56 | 259 | 3.5 | 9.6 | 0.00 | 0.00 | 0.00 | 45 | 1011.0 |
| 20260506200030 | 55 | 264 | 2.6 | 9.6 | 0.00 | 0.00 | 0.00 | 43 | 1011.1 |
| 20260506195306 | 55 | 301 | 1.7 | 7.8 | 0.00 | 0.00 | 0.00 | 46 | 1011.2 |
| 20260506194804 | 55 | 167 | 2.6 | 8.7 | 0.00 | 0.00 | 0.00 | 48 | 1011.1 |
| 20260506194304 | 55 | 274 | 3.5 | 8.7 | 0.00 | 0.00 | 0.00 | 46 | 1011.1 |
| 20260506193804 | 55 | 323 | 4.3 | 11.3 | 0.00 | 0.00 | 0.00 | 44 | 1011.1 |
| 20260506193527 | 54 | 284 | 4.3 | 11.3 | 0.00 | 0.00 | 0.00 | 45 | 1011.2 |
| 20260506192807 | 55 | 57 | 3.5 | 9.6 | 0.00 | 0.00 | 0.00 | 45 | 1011.1 |
| 20260506192301 | 54 | 234 | 4.3 | 9.6 | 0.00 | 0.00 | 0.00 | 46 | 1011.3 |
| 20260506191749 | 55 | 229 | 3.5 | 7.8 | 0.00 | 0.00 | 0.00 | 45 | 1011.4 |
| 20260506191237 | 54 | 22 | 3.5 | 7.8 | 0.00 | 0.00 | 0.00 | 48 | 1011.4 |
| 20260506191204 | 54 | 277 | 3.5 | 7.8 | 0.00 | 0.00 | 0.00 | 50 | 1011.4 |
| 20260506190213 | 53 | 270 | 3.5 | 9.6 | 0.00 | 0.00 | 0.00 | 48 | 1011.5 |
| 20260506185917 | 53 | 15 | 3.5 | 9.6 | 0.00 | 0.00 | 0.00 | 49 | 1011.4 |
| 20260506185200 | 54 | 294 | 3.5 | 8.7 | 0.00 | 0.00 | 0.00 | 48 | 1011.3 |
| 20260506184700 | 54 | 270 | 3.5 | 9.6 | 0.00 | 0.00 | 0.00 | 49 | 1011.2 |
| 20260506184200 | 54 | 287 | 3.5 | 9.6 | 0.00 | 0.00 | 0.00 | 49 | 1011.1 |
| 20260506183700 | 55 | 247 | 3.5 | 9.6 | 0.00 | 0.00 | 0.00 | 48 | 1011.1 |
| 20260506183159 | 54 | 257 | 3.5 | 7.8 | 0.00 | 0.00 | 0.00 | 48 | 1011.0 |
| 20260506182700 | 54 | 278 | 3.5 | 7.8 | 0.00 | 0.00 | 0.00 | 50 | 1011.1 |
| 20260506182202 | 53 | 209 | 3.5 | 7.8 | 0.00 | 0.00 | 0.00 | 51 | 1011.0 |
| 20260506181703 | 52 | 327 | 4.3 | 7.8 | 0.00 | 0.00 | 0.00 | 51 | 1011.0 |
| 20260506181156 | 53 | 254 | 3.5 | 8.7 | 0.00 | 0.00 | 0.00 | 49 | 1011.2 |
| 20260506180644 | 52 | 311 | 3.5 | 8.7 | 0.00 | 0.00 | 0.00 | 52 | 1011.3 |
| 20260506180134 | 53 | 288 | 3.5 | 8.7 | 0.00 | 0.00 | 0.00 | 51 | 1011.2 |
| 20260506175622 | 53 | 314 | 3.5 | 9.6 | 0.00 | 0.00 | 0.00 | 51 | 1011.2 |
| 20260506175110 | 52 | 277 | 4.3 | 9.6 | 0.00 | 0.00 | 0.00 | 51 | 1011.3 |
| 20260506174824 | 53 | 248 | 3.5 | 7.8 | 0.00 | 0.00 | 0.00 | 50 | 1011.4 |
| 20260506174307 | 53 | 276 | 2.6 | 7.8 | 0.00 | 0.00 | 0.00 | 50 | 1011.3 |
| 20260506173537 | 53 | 281 | 2.6 | 9.6 | 0.00 | 0.00 | 0.00 | 51 | 1011.5 |
| 20260506173027 | 52 | 214 | 3.5 | 9.6 | 0.00 | 0.00 | 0.00 | 49 | 1011.6 |
| 20260506172517 | 52 | 289 | 4.3 | 10.4 | 0.00 | 0.00 | 0.00 | 51 | 1011.8 |
| 20260506172224 | 52 | 275 | 5.2 | 10.4 | 0.00 | 0.00 | 0.00 | 51 | 1011.8 |
| 20260506171456 | 51 | 281 | 5.2 | 10.4 | 0.00 | 0.00 | 0.00 | 51 | 1011.8 |
| 20260506170948 | 51 | 320 | 5.2 | 9.6 | 0.00 | 0.00 | 0.00 | 51 | 1011.7 |
| 20260506170440 | 51 | 270 | 4.3 | 10.4 | 0.00 | 0.00 | 0.00 | 52 | 1011.6 |
| 20260506165934 | 51 | 271 | 4.3 | 10.4 | 0.00 | 0.00 | 0.00 | 53 | 1011.5 |
| 20260506165426 | 51 | 266 | 3.5 | 9.6 | 0.00 | 0.00 | 0.00 | 54 | 1011.4 |
| 20260506164918 | 51 | 283 | 3.5 | 9.6 | 0.00 | 0.00 | 0.00 | 53 | 1011.6 |
| 20260506164415 | 51 | 250 | 4.3 | 9.6 | 0.00 | 0.00 | 0.00 | 54 | 1011.6 |
| 20260506163914 | 51 | 323 | 5.2 | 11.3 | 0.00 | 0.00 | 0.00 | 54 | 1011.5 |
| 20260506163415 | 51 | 355 | 4.3 | 11.3 | 0.00 | 0.00 | 0.00 | 53 | 1011.4 |
| 20260506163136 | 51 | 327 | 4.3 | 10.4 | 0.00 | 0.00 | 0.00 | 55 | 1011.4 |
| 20260506162414 | 51 | 280 | 5.2 | 11.3 | 0.00 | 0.00 | 0.00 | 54 | 1011.3 |
| 20260506161915 | 52 | 251 | 4.3 | 11.3 | 0.00 | 0.00 | 0.00 | 52 | 1011.3 |
| 20260506161412 | 52 | 281 | 3.5 | 8.7 | 0.00 | 0.00 | 0.00 | 53 | 1011.3 |
| 20260506160911 | 52 | 275 | 5.2 | 13.0 | 0.00 | 0.00 | 0.00 | 53 | 1011.4 |
| 20260506160410 | 52 | 276 | 5.2 | 13.0 | 0.00 | 0.00 | 0.00 | 51 | 1011.3 |
| 20260506155912 | 53 | 318 | 3.5 | 10.4 | 0.00 | 0.00 | 0.00 | 52 | 1011.1 |
| 20260506155410 | 53 | 54 | 4.3 | 9.6 | 0.00 | 0.00 | 0.00 | 52 | 1011.1 |
| 20260506154910 | 53 | 323 | 4.3 | 9.6 | 0.00 | 0.00 | 0.00 | 51 | 1011.1 |
| 20260506154631 | 53 | 290 | 4.3 | 7.8 | 0.00 | 0.00 | 0.00 | 51 | 1011.0 |
| 20260506154130 | 53 | 310 | 3.5 | 7.8 | 0.00 | 0.00 | 0.00 | 51 | 1011.1 |
| 20260506153632 | 53 | 339 | 3.5 | 13.0 | 0.00 | 0.00 | 0.00 | 52 | 1011.0 |
| 20260506152910 | 53 | 322 | 4.3 | 13.0 | 0.00 | 0.00 | 0.00 | 55 | 1011.0 |
| 20260506152408 | 53 | 5 | 4.3 | 13.0 | 0.00 | 0.00 | 0.00 | 54 | 1011.0 |
| 20260506151857 | 53 | 247 | 4.3 | 13.0 | 0.00 | 0.00 | 0.00 | 53 | 1011.0 |
| 20260506151356 | 53 | 22 | 5.2 | 9.6 | 0.00 | 0.00 | 0.00 | 53 | 1010.8 |
| 20260506150850 | 54 | 324 | 4.3 | 8.7 | 0.00 | 0.00 | 0.00 | 51 | 1010.8 |
| 20260506150344 | 53 | 279 | 4.3 | 8.7 | 0.00 | 0.00 | 0.00 | 52 | 1010.8 |
| 20260506145838 | 53 | 279 | 4.3 | 8.7 | 0.00 | 0.00 | 0.00 | 55 | 1010.8 |
| 20260506145332 | 52 | 5 | 4.3 | 8.7 | 0.00 | 0.00 | 0.00 | 52 | 1010.7 |
| 20260506144825 | 52 | 264 | 4.3 | 9.6 | 0.00 | 0.00 | 0.00 | 52 | 1010.7 |
| 20260506144541 | 53 | 322 | 4.3 | 9.6 | 0.00 | 0.00 | 0.00 | 51 | 1010.7 |
| 20260506143809 | 53 | 145 | 4.3 | 10.4 | 0.00 | 0.00 | 0.00 | 49 | 1010.6 |
| 20260506143308 | 53 | 300 | 3.5 | 9.6 | 0.00 | 0.00 | 0.00 | 50 | 1010.5 |
| 20260506142801 | 53 | 258 | 3.5 | 9.6 | 0.00 | 0.00 | 0.00 | 51 | 1010.5 |
| 20260506142254 | 52 | 346 | 4.3 | 8.7 | 0.00 | 0.00 | 0.00 | 50 | 1010.4 |
| 20260506142011 | 52 | 289 | 4.3 | 8.7 | 0.00 | 0.00 | 0.00 | 52 | 1010.5 |
| 20260506141241 | 52 | 249 | 3.5 | 8.7 | 0.00 | 0.00 | 0.00 | 51 | 1010.5 |
| 20260506140736 | 51 | 275 | 3.5 | 10.4 | 0.00 | 0.00 | 0.00 | 52 | 1010.4 |
| 20260506140454 | 51 | 311 | 4.3 | 10.4 | 0.00 | 0.00 | 0.00 | 51 | 1010.4 |
| 20260506135724 | 51 | 288 | 5.2 | 10.4 | 0.00 | 0.00 | 0.00 | 53 | 1010.3 |
| 20260506135429 | 51 | 317 | 5.2 | 12.2 | 0.00 | 0.00 | 0.00 | 52 | 1010.2 |
| 20260506134711 | 51 | 274 | 5.2 | 12.2 | 0.00 | 0.00 | 0.00 | 52 | 1010.1 |
| 20260506134432 | 51 | 279 | 6.1 | 13.9 | 0.00 | 0.00 | 0.00 | 53 | 1010.2 |
| 20260506133700 | 51 | 334 | 5.2 | 13.9 | 0.00 | 0.00 | 0.00 | 52 | 1010.3 |
| 20260506133153 | 51 | 258 | 3.5 | 9.6 | 0.00 | 0.00 | 0.00 | 52 | 1010.2 |
| 20260506132643 | 51 | 224 | 3.5 | 7.0 | 0.00 | 0.00 | 0.00 | 56 | 1010.2 |
| 20260506132142 | 50 | 267 | 2.6 | 8.7 | 0.00 | 0.00 | 0.00 | 56 | 1010.0 |
| 20260506131636 | 49 | 263 | 3.5 | 8.7 | 0.00 | 0.00 | 0.00 | 59 | 1010.0 |
| 20260506131123 | 49 | 279 | 4.3 | 8.7 | 0.00 | 0.00 | 0.00 | 60 | 1010.0 |
| 20260506130842 | 49 | 257 | 4.3 | 8.7 | 0.00 | 0.00 | 0.00 | 61 | 1009.9 |
| 20260506130109 | 49 | 257 | 3.5 | 7.0 | 0.00 | 0.00 | 0.00 | 63 | 1009.9 |
| 20260506125603 | 48 | 277 | 3.5 | 8.7 | 0.00 | 0.00 | 0.00 | 63 | 1009.8 |
| 20260506125102 | 48 | 292 | 3.5 | 8.7 | 0.00 | 0.00 | 0.00 | 65 | 1009.7 |
| 20260506124556 | 48 | 317 | 2.6 | 7.0 | 0.00 | 0.00 | 0.00 | 65 | 1009.7 |
| 20260506124049 | 47 | 300 | 2.6 | 7.0 | 0.00 | 0.00 | 0.00 | 64 | 1009.7 |
| 20260506123543 | 47 | 294 | 3.5 | 7.0 | 0.00 | 0.00 | 0.00 | 65 | 1009.6 |
| 20260506123302 | 47 | 319 | 4.3 | 8.7 | 0.00 | 0.00 | 0.00 | 64 | 1009.5 |
| 20260506122801 | 46 | 289 | 3.5 | 8.7 | 0.00 | 0.00 | 0.00 | 64 | 1009.5 |
| 20260506122021 | 46 | 292 | 2.6 | 5.2 | 0.00 | 0.00 | 0.00 | 67 | 1009.4 |
| 20260506121519 | 46 | 286 | 1.7 | 3.5 | 0.00 | 0.00 | 0.00 | 67 | 1009.1 |
| 20260506121235 | 45 | 342 | 1.7 | 6.1 | 0.00 | 0.00 | 0.00 | 67 | 1009.2 |
| 20260506120508 | 45 | 279 | 2.6 | 6.1 | 0.00 | 0.00 | 0.00 | 67 | 1009.2 |
| 20260506120000 | 45 | 308 | 2.6 | 5.2 | 0.00 | 0.00 | 0.00 | 66 | 1009.1 |
| 20260506115454 | 45 | 265 | 1.7 | 4.3 | 0.00 | 0.00 | 0.00 | 67 | 1009.0 |
| 20260506114941 | 45 | 312 | 1.7 | 4.3 | 0.00 | 0.00 | 0.00 | 66 | 1009.1 |
| 20260506114659 | 45 | 274 | 1.7 | 4.3 | 0.00 | 0.00 | 0.00 | 67 | 1009.2 |
| 20260506114158 | 45 | 294 | 1.7 | 4.3 | 0.00 | 0.00 | 0.00 | 68 | 1009.2 |
| 20260506113424 | 45 | 286 | 1.7 | 4.3 | 0.00 | 0.00 | 0.00 | 68 | 1009.0 |
| 20260506112911 | 45 | 278 | 1.7 | 5.2 | 0.00 | 0.00 | 0.00 | 67 | 1009.0 |
| 20260506112634 | 45 | 292 | 1.7 | 5.2 | 0.00 | 0.00 | 0.00 | 67 | 1008.9 |
| 20260506111900 | 44 | 274 | 1.7 | 5.2 | 0.00 | 0.00 | 0.00 | 67 | 1008.8 |
| 20260506111354 | 44 | 321 | 1.7 | 5.2 | 0.00 | 0.00 | 0.00 | 67 | 1008.9 |
| 20260506110848 | 44 | 330 | 1.7 | 5.2 | 0.00 | 0.00 | 0.00 | 67 | 1008.7 |
| 20260506110607 | 45 | 314 | 1.7 | 4.3 | 0.00 | 0.00 | 0.00 | 67 | 1008.6 |
| 20260506105831 | 45 | 334 | 1.7 | 5.2 | 0.00 | 0.00 | 0.00 | 66 | 1008.4 |
| 20260506105330 | 45 | 277 | 1.7 | 5.2 | 0.00 | 0.00 | 0.00 | 66 | 1008.4 |
| 20260506105035 | 45 | 296 | 1.7 | 4.3 | 0.00 | 0.00 | 0.00 | 66 | 1008.3 |
| 20260506104317 | 45 | 315 | 2.6 | 5.2 | 0.00 | 0.00 | 0.00 | 65 | 1008.3 |
| 20260506104033 | 46 | 284 | 2.6 | 5.2 | 0.00 | 0.00 | 0.00 | 65 | 1008.4 |
| 20260506103527 | 46 | 279 | 2.6 | 6.1 | 0.00 | 0.00 | 0.00 | 65 | 1008.1 |
| 20260506102800 | 46 | 318 | 2.6 | 6.1 | 0.00 | 0.00 | 0.00 | 65 | 1008.0 |
| 20260506102249 | 46 | 277 | 2.6 | 5.2 | 0.00 | 0.00 | 0.00 | 64 | 1008.0 |
| 20260506101747 | 46 | 300 | 2.6 | 5.2 | 0.00 | 0.00 | 0.00 | 65 | 1008.0 |
| 20260506101242 | 46 | 296 | 1.7 | 6.1 | 0.00 | 0.00 | 0.00 | 65 | 1008.0 |
| 20260506100729 | 46 | 287 | 2.6 | 5.2 | 0.00 | 0.00 | 0.00 | 65 | 1007.9 |
| 20260506100446 | 46 | 294 | 1.7 | 5.2 | 0.00 | 0.00 | 0.00 | 65 | 1007.9 |
| 20260506095718 | 46 | 271 | 1.7 | 4.3 | 0.00 | 0.00 | 0.00 | 66 | 1007.9 |
| 20260506095211 | 46 | 315 | 1.7 | 3.5 | 0.00 | 0.00 | 0.00 | 65 | 1007.8 |
| 20260506094706 | 46 | 317 | 1.7 | 3.5 | 0.00 | 0.00 | 0.00 | 65 | 1007.7 |
| 20260506094200 | 46 | 295 | 0.9 | 2.6 | 0.00 | 0.00 | 0.00 | 65 | 1007.8 |
| 20260506093649 | 46 | 299 | 0.9 | 3.5 | 0.00 | 0.00 | 0.00 | 65 | 1007.7 |
| 20260506093148 | 47 | 296 | 1.7 | 3.5 | 0.00 | 0.00 | 0.00 | 66 | 1007.6 |
| 20260506092641 | 47 | 298 | 1.7 | 3.5 | 0.00 | 0.00 | 0.00 | 65 | 1007.5 |
| 20260506092136 | 47 | 306 | 1.7 | 3.5 | 0.00 | 0.00 | 0.00 | 64 | 1007.4 |
| 20260506091851 | 47 | 315 | 1.7 | 3.5 | 0.00 | 0.00 | 0.00 | 64 | 1007.3 |
| 20260506091124 | 47 | 276 | 1.7 | 6.1 | 0.00 | 0.00 | 0.00 | 65 | 1007.5 |
| 20260506090618 | 47 | 288 | 1.7 | 6.1 | 0.00 | 0.00 | 0.00 | 64 | 1007.6 |
| 20260506090107 | 47 | 317 | 1.7 | 3.5 | 0.00 | 0.00 | 0.00 | 64 | 1007.5 |
| 20260506085606 | 47 | 314 | 1.7 | 3.5 | 0.00 | 0.00 | 0.00 | 64 | 1007.3 |
| 20260506085100 | 47 | 0 | 1.7 | 3.5 | 0.00 | 0.00 | 0.00 | 64 | 1007.3 |
| 20260506084554 | 47 | 275 | 2.6 | 3.5 | 0.00 | 0.00 | 0.00 | 63 | 1007.2 |
| 20260506084047 | 47 | 287 | 1.7 | 5.2 | 0.00 | 0.00 | 0.00 | 64 | 1007.1 |
| 20260506083537 | 47 | 252 | 1.7 | 5.2 | 0.00 | 0.00 | 0.00 | 63 | 1007.4 |
| 20260506083035 | 47 | 285 | 1.7 | 5.2 | 0.00 | 0.00 | 0.00 | 64 | 1007.3 |
| 20260506082526 | 47 | 307 | 1.7 | 3.5 | 0.00 | 0.00 | 0.00 | 64 | 1007.4 |
| 20260506082023 | 47 | 331 | 1.7 | 5.2 | 0.00 | 0.00 | 0.00 | 64 | 1007.3 |
| 20260506081518 | 47 | 319 | 2.6 | 5.2 | 0.00 | 0.00 | 0.00 | 64 | 1007.3 |
| 20260506081242 | 47 | 284 | 2.6 | 5.2 | 0.00 | 0.00 | 0.00 | 63 | 1007.2 |
| 20260506080506 | 47 | 275 | 2.6 | 5.2 | 0.00 | 0.00 | 0.00 | 64 | 1007.2 |
| 20260506072923 | 48 | 257 | 2.6 | 5.2 | 0.00 | 0.00 | 0.00 | 63 | 1007.5 |
| 20260506072418 | 48 | 308 | 2.6 | 5.2 | 0.00 | 0.00 | 0.00 | 63 | 1007.3 |
| 20260506071912 | 48 | 254 | 1.7 | 4.3 | 0.00 | 0.00 | 0.00 | 64 | 1007.3 |
| 20260506071405 | 48 | 273 | 1.7 | 4.3 | 0.00 | 0.00 | 0.00 | 64 | 1007.3 |
| 20260506070855 | 48 | 277 | 1.7 | 5.2 | 0.00 | 0.00 | 0.00 | 64 | 1007.1 |
| 20260506070353 | 48 | 274 | 1.7 | 5.2 | 0.00 | 0.00 | 0.00 | 64 | 1007.2 |
| 20260506062306 | 48 | 291 | 1.7 | 4.3 | 0.00 | 0.00 | 0.00 | 64 | 1007.6 |
| 20260506061759 | 48 | 302 | 1.7 | 4.3 | 0.00 | 0.00 | 0.00 | 64 | 1007.5 |
| 20260506061513 | 48 | 301 | 2.6 | 7.0 | 0.00 | 0.00 | 0.00 | 64 | 1007.6 |
| 20260506061009 | 48 | 292 | 2.6 | 7.0 | 0.00 | 0.00 | 0.00 | 64 | 1007.5 |
| 20260506060242 | 48 | 271 | 1.7 | 5.2 | 0.00 | 0.00 | 0.00 | 65 | 1007.6 |
| 20260506051142 | 49 | 305 | 0.9 | 3.5 | 0.00 | 0.02 | 0.00 | 64 | 1007.5 |
| 20260506050631 | 49 | 300 | 1.7 | 3.5 | 0.00 | 0.02 | 0.00 | 64 | 1007.4 |
| 20260506050130 | 49 | 257 | 1.7 | 3.5 | 0.00 | 0.02 | 0.00 | 64 | 1007.6 |
| 20260506045119 | 49 | 270 | 0.9 | 3.5 | 0.00 | 0.02 | 0.00 | 64 | 1007.5 |
| 20260506044612 | 49 | 284 | 0.9 | 3.5 | 0.00 | 0.02 | 0.00 | 64 | 1007.6 |
| 20260506044105 | 49 | 240 | 0.9 | 2.6 | 0.00 | 0.02 | 0.00 | 64 | 1007.6 |
| 20260506043600 | 49 | 275 | 0.9 | 2.6 | 0.00 | 0.02 | 0.00 | 64 | 1007.5 |
| 20260506043308 | 49 | 261 | 0.0 | 1.7 | 0.00 | 0.02 | 0.00 | 65 | 1007.4 |
| 20260506042547 | 49 | 261 | 0.9 | 3.5 | 0.00 | 0.05 | 0.00 | 65 | 1007.5 |
| 20260506042041 | 49 | 256 | 0.9 | 3.5 | 0.00 | 0.08 | 0.00 | 63 | 1007.5 |
| 20260506041536 | 49 | 271 | 0.9 | 2.6 | 0.00 | 0.08 | 0.00 | 64 | 1007.4 |
| 20260506041520 | 49 | 282 | 1.7 | 5.2 | 0.00 | 0.08 | 0.00 | 62 | 1007.5 |
| 20260506040519 | 49 | 284 | 1.7 | 5.2 | 0.00 | 0.08 | 0.00 | 61 | 1007.4 |
| 20260506040013 | 49 | 243 | 1.7 | 4.3 | 0.00 | 0.08 | 0.00 | 60 | 1007.4 |
| 20260506035722 | 49 | 273 | 1.7 | 3.5 | 0.00 | 0.08 | 0.08 | 60 | 1007.3 |
| 20260506035002 | 49 | 247 | 1.7 | 5.2 | 0.00 | 0.08 | 0.08 | 59 | 1007.2 |
| 20260506034456 | 49 | 284 | 1.7 | 5.2 | 0.00 | 0.08 | 0.08 | 59 | 1007.2 |
| 20260506033951 | 49 | 281 | 1.7 | 4.3 | 0.00 | 0.08 | 0.08 | 60 | 1007.2 |
| 20260506033444 | 49 | 291 | 0.9 | 3.5 | 0.00 | 0.08 | 0.08 | 60 | 1007.3 |
| 20260506032939 | 49 | 284 | 0.0 | 2.6 | 0.00 | 0.08 | 0.08 | 63 | 1007.1 |
| 20260506032432 | 49 | 270 | 0.0 | 0.9 | 0.00 | 0.08 | 0.08 | 64 | 1007.2 |
| 20260506031923 | 49 | 270 | 0.0 | 0.9 | 0.00 | 0.08 | 0.08 | 63 | 1007.3 |
| 20260506031420 | 49 | 270 | 0.0 | 1.7 | 0.00 | 0.08 | 0.08 | 61 | 1007.4 |
| 20260506031135 | 49 | 270 | 0.0 | 1.7 | 0.00 | 0.08 | 0.08 | 62 | 1007.5 |
| 20260506030409 | 49 | 279 | 0.0 | 1.7 | 0.00 | 0.08 | 0.08 | 62 | 1007.6 |
| 20260506025902 | 50 | 279 | 0.0 | 1.7 | 0.00 | 0.08 | 0.08 | 62 | 1007.5 |
| 20260506025352 | 50 | 266 | 0.0 | 1.7 | 0.00 | 0.08 | 0.08 | 62 | 1007.4 |
| 20260506024851 | 50 | 272 | 0.9 | 1.7 | 0.00 | 0.08 | 0.08 | 60 | 1007.3 |
| 20260506024344 | 50 | 282 | 0.0 | 1.7 | 0.00 | 0.08 | 0.08 | 61 | 1007.3 |
| 20260506023839 | 50 | 276 | 0.0 | 1.7 | 0.00 | 0.08 | 0.08 | 62 | 1007.4 |
| 20260506023600 | 50 | 283 | 0.9 | 2.6 | 0.00 | 0.08 | 0.08 | 61 | 1007.5 |
| 20260506022827 | 50 | 283 | 0.9 | 2.6 | 0.00 | 0.08 | 0.08 | 60 | 1007.5 |
| 20260506022548 | 50 | 285 | 0.9 | 2.6 | 0.00 | 0.08 | 0.08 | 60 | 1007.5 |
| 20260506021810 | 50 | 281 | 0.9 | 2.6 | 0.00 | 0.08 | 0.08 | 60 | 1007.4 |
| 20260506021308 | 50 | 296 | 0.0 | 2.6 | 0.00 | 0.08 | 0.08 | 58 | 1007.3 |
| 20260506020802 | 51 | 290 | 0.0 | 1.7 | 0.00 | 0.08 | 0.08 | 58 | 1007.3 |
| 20260506020257 | 51 | 290 | 0.9 | 2.6 | 0.00 | 0.08 | 0.08 | 57 | 1007.3 |
| 20260506015750 | 51 | 290 | 0.9 | 2.6 | 0.00 | 0.08 | 0.08 | 55 | 1007.3 |
| 20260506015240 | 51 | 318 | 1.7 | 4.3 | 0.00 | 0.08 | 0.08 | 55 | 1007.2 |
| 20260506014739 | 51 | 249 | 1.7 | 4.3 | 0.00 | 0.08 | 0.08 | 54 | 1007.2 |
| 20260506014232 | 51 | 319 | 2.6 | 6.1 | 0.00 | 0.08 | 0.08 | 54 | 1007.1 |
| 20260506014208 | 51 | 284 | 2.6 | 6.1 | 0.00 | 0.08 | 0.08 | 54 | 1006.9 |
| 20260506013445 | 51 | 288 | 2.6 | 6.1 | 0.00 | 0.08 | 0.08 | 53 | 1006.9 |
| 20260506012710 | 51 | 283 | 1.7 | 6.1 | 0.00 | 0.08 | 0.08 | 53 | 1007.0 |
| 20260506012209 | 51 | 284 | 1.7 | 5.2 | 0.00 | 0.08 | 0.08 | 54 | 1006.9 |
| 20260506011658 | 51 | 292 | 2.6 | 5.2 | 0.00 | 0.08 | 0.08 | 53 | 1006.7 |
| 20260506011156 | 52 | 290 | 2.6 | 5.2 | 0.00 | 0.08 | 0.08 | 53 | 1006.8 |
| 20260506010651 | 52 | 257 | 2.6 | 6.1 | 0.00 | 0.08 | 0.08 | 54 | 1006.7 |
| 20260506010402 | 52 | 314 | 2.6 | 6.1 | 0.00 | 0.08 | 0.08 | 52 | 1006.8 |
| 20260506005638 | 52 | 296 | 1.7 | 5.2 | 0.00 | 0.08 | 0.08 | 52 | 1006.8 |
| 20260506005128 | 52 | 273 | 1.7 | 4.3 | 0.00 | 0.08 | 0.08 | 52 | 1006.7 |
| 20260506004626 | 52 | 277 | 1.7 | 4.3 | 0.00 | 0.08 | 0.08 | 52 | 1006.8 |
| 20260506004120 | 52 | 228 | 2.6 | 6.1 | 0.00 | 0.08 | 0.08 | 54 | 1006.8 |
| 20260506003610 | 52 | 205 | 3.5 | 7.0 | 0.00 | 0.08 | 0.08 | 51 | 1006.8 |
| 20260506003108 | 52 | 277 | 2.6 | 7.0 | 0.00 | 0.08 | 0.08 | 51 | 1006.9 |
| 20260506002818 | 52 | 251 | 1.7 | 5.2 | 0.00 | 0.08 | 0.08 | 53 | 1006.8 |
| 20260506002056 | 53 | 318 | 2.6 | 6.1 | 0.00 | 0.08 | 0.08 | 54 | 1006.9 |
| 20260506001545 | 53 | 288 | 3.5 | 7.8 | 0.00 | 0.08 | 0.08 | 52 | 1006.8 |
| 20260506001044 | 53 | 275 | 2.6 | 7.8 | 0.00 | 0.08 | 0.08 | 53 | 1006.9 |
| 20260506000538 | 53 | 282 | 2.6 | 5.2 | 0.00 | 0.08 | 0.08 | 58 | 1006.8 |
| 20260506000033 | 53 | 259 | 2.6 | 5.2 | 0.00 | 0.08 | 0.08 | 56 | 1006.7 |
| 20260505235749 | 53 | 290 | 1.7 | 5.2 | 0.00 | 0.08 | 0.08 | 55 | 1006.6 |
| 20260505235032 | 53 | 278 | 1.7 | 5.2 | 0.00 | 0.08 | 0.08 | 57 | 1006.7 |
| 20260505234534 | 53 | 293 | 2.6 | 6.1 | 0.00 | 0.09 | 0.08 | 55 | 1006.4 |
| 20260505234033 | 53 | 238 | 2.6 | 6.1 | 0.00 | 0.09 | 0.08 | 56 | 1006.4 |
| 20260505233528 | 53 | 291 | 2.6 | 6.1 | 0.00 | 0.09 | 0.08 | 54 | 1006.3 |
| 20260505233028 | 53 | 277 | 2.6 | 6.1 | 0.00 | 0.15 | 0.08 | 54 | 1006.2 |
| 20260505232528 | 54 | 271 | 2.6 | 5.2 | 0.00 | 0.16 | 0.08 | 56 | 1006.2 |
| 20260505232028 | 54 | 245 | 2.6 | 7.0 | 0.00 | 0.16 | 0.08 | 55 | 1006.1 |
| 20260505231529 | 54 | 289 | 2.6 | 7.0 | 0.00 | 0.16 | 0.08 | 53 | 1006.2 |
| 20260505231026 | 54 | 250 | 1.7 | 6.1 | 0.00 | 0.18 | 0.08 | 55 | 1006.2 |
| 20260505230754 | 54 | 294 | 2.6 | 6.1 | 0.00 | 0.23 | 0.08 | 54 | 1006.2 |
| 20260505230023 | 54 | 252 | 2.6 | 5.2 | 0.00 | 0.24 | 0.08 | 54 | 1006.2 |
| 20260505225524 | 54 | 257 | 2.6 | 7.8 | 0.00 | 0.24 | 0.08 | 53 | 1006.2 |
| 20260505225024 | 54 | 290 | 3.5 | 8.7 | 0.00 | 0.24 | 0.08 | 53 | 1006.3 |
| 20260505224745 | 54 | 271 | 4.3 | 11.3 | 0.00 | 0.24 | 0.08 | 53 | 1006.3 |
| 20260505224027 | 54 | 293 | 4.3 | 11.3 | 0.00 | 0.24 | 0.08 | 53 | 1006.3 |
| 20260505223525 | 55 | 282 | 3.5 | 7.8 | 0.00 | 0.24 | 0.08 | 54 | 1006.2 |
| 20260505223019 | 55 | 313 | 3.5 | 7.8 | 0.00 | 0.24 | 0.08 | 54 | 1006.3 |